When you browse on this site, cookies collect data to enhance your experience and personalize the content and advertising you see.
Visit our Privacy Policy to learn more. By continuing to use the site, you agree to this use of cookies and data.
  • en France
  • Liste des pays
  • À 7 jours
  • Température de l'eau
  • Carte satellitaire
  • Carte météo
  • Widgets météo
  • user-avatar
    Se connecter

    Météo par heure à Gwatemala

    Ce jour, 24 Mai, Vendredi

    Heure Température Précipitation Vent Pression Humidité
    00:00 +18°C° 0 mm 2 m/s 636 mmHg 90%
    01:00 +18°C° 0.1 mm 2 m/s 636 mmHg 90%
    02:00 +18°C° 0.1 mm 2 m/s 636 mmHg 91%
    03:00 +19°C° 0.1 mm 1 m/s 636 mmHg 91%
    04:00 +19°C° 0 mm 1 m/s 636 mmHg 91%
    05:00 +19°C° 0 mm 1 m/s 636 mmHg 91%
    06:00 +18°C° 0 mm 2 m/s 636 mmHg 91%
    07:00 +19°C° 0 mm 2 m/s 636 mmHg 83%
    08:00 +21°C° 0 mm 2 m/s 637 mmHg 74%
    09:00 +24°C° 0 mm 2 m/s 638 mmHg 66%
    10:00 +25°C° 0.4 mm 2 m/s 638 mmHg 63%
    11:00 +26°C° 0.4 mm 2 m/s 639 mmHg 60%
    12:00 +27°C° 0.4 mm 2 m/s 639 mmHg 56%
    13:00 +27°C° 1 mm 2 m/s 638 mmHg 57%
    14:00 +27°C° 1 mm 2 m/s 638 mmHg 58%
    15:00 +27°C° 1 mm 2 m/s 638 mmHg 59%
    16:00 +26°C° 0.9 mm 2 m/s 637 mmHg 64%
    17:00 +24°C° 0.9 mm 2 m/s 637 mmHg 68%
    18:00 +23°C° 0.9 mm 2 m/s 637 mmHg 73%
    19:00 +21°C° 0.2 mm 2 m/s 637 mmHg 78%
    20:00 +21°C° 0.2 mm 1 m/s 637 mmHg 82%
    21:00 +19°C° 0.2 mm 1 m/s 637 mmHg 86%
    22:00 +19°C° 0 mm 1 m/s 637 mmHg 88%
    23:00 +19°C° 0 mm 1 m/s 637 mmHg 89%

    Demain, 25 Mai, Samedi

    Heure Température Précipitation Vent Pression Humidité
    00:00 +18°C° 0 mm 1 m/s 637 mmHg 91%
    01:00 +18°C° 0 mm 1 m/s 636 mmHg 91%
    02:00 +18°C° 0 mm 1 m/s 636 mmHg 92%
    03:00 +16°C° 0 mm 2 m/s 635 mmHg 92%
    04:00 +16°C° 0 mm 2 m/s 635 mmHg 92%
    05:00 +17°C° 0 mm 2 m/s 635 mmHg 92%
    06:00 +17°C° 0 mm 2 m/s 635 mmHg 92%
    07:00 +19°C° 0 mm 2 m/s 636 mmHg 83%
    08:00 +21°C° 0 mm 2 m/s 637 mmHg 73%
    09:00 +24°C° 0 mm 2 m/s 638 mmHg 63%
    10:00 +25°C° 0.1 mm 2 m/s 639 mmHg 58%
    11:00 +27°C° 0.1 mm 2 m/s 639 mmHg 54%
    12:00 +28°C° 0.1 mm 2 m/s 639 mmHg 49%
    13:00 +28°C° 0.6 mm 2 m/s 638 mmHg 50%
    14:00 +28°C° 0.6 mm 2 m/s 638 mmHg 50%
    15:00 +28°C° 0.6 mm 2 m/s 637 mmHg 51%
    16:00 +26°C° 0.8 mm 2 m/s 637 mmHg 57%
    17:00 +25°C° 0.8 mm 2 m/s 637 mmHg 63%
    18:00 +23°C° 0.8 mm 2 m/s 636 mmHg 70%
    19:00 +21°C° 0.3 mm 2 m/s 637 mmHg 75%
    20:00 +20°C° 0.3 mm 1 m/s 637 mmHg 80%
    21:00 +19°C° 0.3 mm 1 m/s 637 mmHg 84%
    22:00 +19°C° 0 mm 1 m/s 637 mmHg 86%
    23:00 +18°C° 0 mm 1 m/s 637 mmHg 88%

    Après-demain, 26 Mai, Dimanche

    Heure Température Précipitation Vent Pression Humidité
    00:00 +18°C° 0 mm 1 m/s 636 mmHg 90%
    01:00 +18°C° 0 mm 1 m/s 636 mmHg 91%
    02:00 +16°C° 0 mm 2 m/s 635 mmHg 92%
    03:00 +16°C° 0 mm 2 m/s 635 mmHg 93%
    04:00 +16°C° 0 mm 2 m/s 635 mmHg 93%
    05:00 +16°C° 0 mm 2 m/s 635 mmHg 93%
    06:00 +17°C° 0 mm 2 m/s 636 mmHg 93%
    07:00 +19°C° 0 mm 2 m/s 637 mmHg 81%
    08:00 +21°C° 0 mm 2 m/s 638 mmHg 70%
    09:00 +24°C° 0 mm 2 m/s 639 mmHg 59%
    10:00 +26°C° 0 mm 2 m/s 639 mmHg 53%
    11:00 +27°C° 0 mm 2 m/s 639 mmHg 48%
    12:00 +29°C° 0 mm 2 m/s 639 mmHg 42%
    13:00 +29°C° 0.2 mm 2 m/s 639 mmHg 43%
    14:00 +28°C° 0.2 mm 2 m/s 638 mmHg 45%
    15:00 +28°C° 0.2 mm 2 m/s 637 mmHg 47%
    16:00 +26°C° 0.5 mm 2 m/s 637 mmHg 53%
    17:00 +25°C° 0.5 mm 2 m/s 637 mmHg 60%
    18:00 +23°C° 0.5 mm 2 m/s 636 mmHg 67%
    19:00 +22°C° 0.2 mm 1 m/s 637 mmHg 71%
    20:00 +21°C° 0.2 mm 1 m/s 637 mmHg 75%
    21:00 +19°C° 0.2 mm 1 m/s 637 mmHg 80%
    22:00 +19°C° 0 mm 1 m/s 637 mmHg 82%
    23:00 +18°C° 0 mm 1 m/s 636 mmHg 85%

    27 Mai, Lundi

    Heure Température Précipitation Vent Pression Humidité
    00:00 +18°C° 0 mm 1 m/s 636 mmHg 87%
    01:00 +18°C° 0 mm 1 m/s 636 mmHg 88%
    02:00 +18°C° 0 mm 1 m/s 635 mmHg 89%
    03:00 +16°C° 0 mm 1 m/s 634 mmHg 90%
    04:00 +16°C° 0 mm 1 m/s 635 mmHg 91%
    05:00 +16°C° 0 mm 1 m/s 635 mmHg 91%
    06:00 +16°C° 0 mm 1 m/s 635 mmHg 92%
    07:00 +20°C° 0 mm 1 m/s 636 mmHg 80%
    08:00 +22°C° 0 mm 1 m/s 637 mmHg 68%
    09:00 +25°C° 0 mm 1 m/s 638 mmHg 57%
    10:00 +26°C° 0 mm 1 m/s 639 mmHg 51%
    11:00 +28°C° 0 mm 1 m/s 639 mmHg 46%
    12:00 +30°C° 0 mm 1 m/s 639 mmHg 41%
    13:00 +29°C° 0.3 mm 1 m/s 638 mmHg 44%
    14:00 +29°C° 0.3 mm 1 m/s 637 mmHg 46%
    15:00 +28°C° 0.3 mm 2 m/s 636 mmHg 49%
    16:00 +27°C° 0.4 mm 1 m/s 636 mmHg 56%
    17:00 +25°C° 0.4 mm 1 m/s 636 mmHg 63%
    18:00 +23°C° 0.4 mm 1 m/s 636 mmHg 69%
    19:00 +22°C° 0.3 mm 1 m/s 636 mmHg 74%
    20:00 +21°C° 0.3 mm 1 m/s 636 mmHg 78%
    21:00 +18°C° 0.3 mm 0 m/s 636 mmHg 82%
    22:00 +19°C° 0.2 mm 1 m/s 636 mmHg 84%
    23:00 +19°C° 0.2 mm 1 m/s 636 mmHg 86%

    28 Mai, Mardi

    Heure Température Précipitation Vent Pression Humidité
    00:00 +18°C° 0.2 mm 1 m/s 635 mmHg 88%
    01:00 +18°C° 0 mm 1 m/s 635 mmHg 88%
    02:00 +18°C° 0 mm 1 m/s 634 mmHg 89%
    03:00 +18°C° 0 mm 1 m/s 634 mmHg 89%
    04:00 +18°C° 0 mm 1 m/s 634 mmHg 88%
    05:00 +18°C° 0 mm 1 m/s 634 mmHg 87%
    06:00 +18°C° 0 mm 1 m/s 635 mmHg 85%
    07:00 +19°C° 0 mm 0 m/s 636 mmHg 75%
    08:00 +21°C° 0 mm 0 m/s 637 mmHg 65%
    09:00 +24°C° 0 mm 0 m/s 638 mmHg 55%
    10:00 +27°C° 0.1 mm 1 m/s 638 mmHg 53%
    11:00 +28°C° 0.1 mm 1 m/s 637 mmHg 51%
    12:00 +29°C° 0.1 mm 1 m/s 637 mmHg 49%
    13:00 +28°C° 0.7 mm 1 m/s 636 mmHg 53%
    14:00 +28°C° 0.7 mm 1 m/s 636 mmHg 57%
    15:00 +27°C° 0.7 mm 2 m/s 635 mmHg 61%
    16:00 +26°C° 0.8 mm 1 m/s 635 mmHg 66%
    17:00 +24°C° 0.8 mm 1 m/s 635 mmHg 71%
    18:00 +23°C° 0.8 mm 1 m/s 634 mmHg 76%
    19:00 +22°C° 0.6 mm 1 m/s 635 mmHg 79%
    20:00 +19°C° 0.6 mm 0 m/s 635 mmHg 82%
    21:00 +18°C° 0.6 mm 0 m/s 635 mmHg 85%
    22:00 +18°C° 0.3 mm 0 m/s 635 mmHg 86%
    23:00 +18°C° 0.3 mm 0 m/s 635 mmHg 87%

    29 Mai, Mercredi

    Heure Température Précipitation Vent Pression Humidité
    00:00 +18°C° 0.3 mm 0 m/s 635 mmHg 88%
    01:00 +17°C° 0.1 mm 0 m/s 634 mmHg 89%
    02:00 +17°C° 0.1 mm 0 m/s 634 mmHg 90%
    03:00 +17°C° 0.1 mm 0 m/s 634 mmHg 91%
    04:00 +17°C° 0 mm 0 m/s 634 mmHg 90%
    05:00 +17°C° 0 mm 0 m/s 634 mmHg 90%
    06:00 +17°C° 0 mm 0 m/s 634 mmHg 89%
    07:00 +19°C° 0 mm 0 m/s 635 mmHg 81%
    08:00 +21°C° 0 mm 0 m/s 636 mmHg 74%
    09:00 +24°C° 0 mm 0 m/s 637 mmHg 66%
    10:00 +26°C° 0.6 mm 1 m/s 637 mmHg 66%
    11:00 +27°C° 0.6 mm 1 m/s 637 mmHg 65%
    12:00 +27°C° 0.6 mm 2 m/s 636 mmHg 64%
    13:00 +27°C° 1.1 mm 2 m/s 636 mmHg 66%
    14:00 +26°C° 1.1 mm 2 m/s 635 mmHg 69%
    15:00 +25°C° 1.1 mm 2 m/s 634 mmHg 71%
    16:00 +24°C° 0.8 mm 2 m/s 634 mmHg 75%
    17:00 +23°C° 0.8 mm 2 m/s 634 mmHg 80%
    18:00 +22°C° 0.8 mm 1 m/s 634 mmHg 84%
    19:00 +22°C° 0.7 mm 1 m/s 635 mmHg 86%
    20:00 +21°C° 0.7 mm 1 m/s 635 mmHg 89%
    21:00 +21°C° 0.7 mm 1 m/s 635 mmHg 91%
    22:00 +21°C° 0.7 mm 1 m/s 635 mmHg 91%
    23:00 +21°C° 0.7 mm 1 m/s 635 mmHg 91%
    Voir plus